sat.trackr.live / text

‹ back to catalog

STARLINK-1635

NORAD 46172 · 2020-057BH

PAYLOAD ACTIVE UNKNOWN

§ Identity

Operator
Country
US
Launch date
2020-08-18
Launch site
AFETR
Launch vehicle
Mass (kg)
RCS (m²)

Purposes: comms

External: N2YO · Heavens-Above · Gunter

§ Orbital elements

Epoch: 2026-07-07T01:46:02.839872Z

Period
87.93 min
Inclination
53.0206°
Eccentricity
0.0013135
Mean motion
16.37633600 rev/d
Perigee alt
163.5 km
Apogee alt
180.7 km
Semi-major
6,550.2 km
B*
6.8341e-4
RAAN
19.8385°
Arg perigee
277.1947°
Mean anomaly
82.7605°
Rev number
32,700

§ Raw data

STARLINK-16351 46172U 20057BH  26188.07364398  .07365536  12319-4  68341-3 0  99992 46172  53.0206  19.8385 0013135 277.1947  82.7605 16.37633600327007

JSON: /api/v1/satellites/46172 · /tle

For live sub-satellite position, see the globe view (requires WebGL).

§ Visibility from observer

Set your observer location to see the next 7 days of passes ≥ 10°. The values pass through the URL so the page stays shareable.

No JS? Fill the form by hand. The geolocation button needs JavaScript.